Погода в Мырзакенте

Казахстан     40°39′52″N   68°32′48″E
темп.,
°C
ветер,
м/с
пор.,
м/с
влажн.,
%
обл.,
%
осадки,
мм/ч
давл.,
гПа
погр.,
м
1 марта, пн
пн100:00+5вюв235452 0.0 102230
03:00+4вюв3454100 0.0 102173
06:00+3юв365395 0.0 102198
09:00+4юв48512 0.0 1021176
12:00+12ююв610301 0.0 1020464
15:00+16ююв69250 0.0 1019655
18:00+15юв610260 0.0 1018446
21:00+11юв612330 0.0 1020226
2 марта, вт
вт200:00+10ююв613340 0.0 1022240
03:00+10ююв6133367 0.0 1022211
06:00+8ю493783 0.0 1022152
09:00+8ююз3639100 0.0 1023140
12:00+13юв4729100 0.0 1023546
15:00+15юв4627100 0.0 1021777
18:00+15вюв1230100 0.0 1021422
21:00+12с4744100 0.0 1023258
3 марта, ср
ср300:00+9с4747100 0.0 1024248
03:00+7ссз3553100 0.0 1024236
06:00+5с366599 0.0 1024208
09:00+5с236997 0.0 1024167
12:00+9сз215196 0.0 1023437
15:00+13сз114287 0.0 1021850
18:00+13ю114493 0.0 10201070
21:00+10ююв4667100 0.2 1021369
4 марта, чт
чт400:00+10вюв5768100 0.8 1021292
03:00+8вюв367119 0.0 1020133
06:00+8юв4107610 0.0 1019266
09:00+8юв512730 0.0 1019321
12:00+14ююв7105126 0.3 1017502
15:00+17ююз474099 0.1 10171480
18:00+14ю5758100 1.2 1018688
21:00+12ююв5107261 0.9 1020308
5 марта, пт
пт500:00+10юз357463 1.3 1022140
03:00+7ссз7127558 0.0 1024716
06:00+3ссз589179 3.9 1027548
09:00+3вюв2291100 5.2 1031259
12:00+5юв227599 5.3 1029645
15:00+9всв235257 0.0 10261028
18:00+10св234229 0.0 10241250
21:00+8ссв355260 0.0 1024125